| time (UTC) | temp F | wind direction | speed knots | gust knots | rain 1hr in | rain 24hr in | rain mn in | humidity % | barometer mb |
| 20260502221008 | 43 | 198 | 0.0 | 1.7 | 0.00 | 0.00 | 0.00 | 62 | 1015.5 |
| 20260502220508 | 43 | 161 | 0.0 | 1.7 | 0.00 | 0.00 | 0.00 | 63 | 1015.5 |
| 20260502220007 | 43 | 146 | 0.9 | 1.7 | 0.00 | 0.00 | 0.00 | 62 | 1015.5 |
| 20260502215507 | 43 | 227 | 0.9 | 2.6 | 0.00 | 0.00 | 0.00 | 60 | 1015.6 |
| 20260502215008 | 43 | 261 | 0.9 | 2.6 | 0.00 | 0.00 | 0.00 | 62 | 1015.6 |
| 20260502214508 | 43 | 298 | 0.9 | 2.6 | 0.00 | 0.00 | 0.00 | 61 | 1015.5 |
| 20260502214008 | 44 | 182 | 0.9 | 2.6 | 0.00 | 0.00 | 0.00 | 61 | 1015.4 |
| 20260502213507 | 44 | 167 | 0.9 | 2.6 | 0.00 | 0.00 | 0.00 | 60 | 1015.3 |
| 20260502213008 | 44 | 309 | 0.9 | 1.7 | 0.00 | 0.00 | 0.00 | 61 | 1015.3 |
| 20260502212508 | 44 | 5 | 0.9 | 1.7 | 0.00 | 0.00 | 0.00 | 58 | 1015.3 |
| 20260502212007 | 44 | 5 | 0.0 | 1.7 | 0.00 | 0.00 | 0.00 | 59 | 1015.4 |
| 20260502211721 | 43 | 338 | 0.9 | 4.3 | 0.00 | 0.00 | 0.00 | 60 | 1015.3 |
| 20260502210954 | 44 | 229 | 0.9 | 4.3 | 0.00 | 0.00 | 0.00 | 56 | 1015.2 |
| 20260502210449 | 44 | 277 | 0.9 | 2.6 | 0.00 | 0.00 | 0.00 | 57 | 1015.3 |
| 20260502205943 | 44 | 193 | 0.9 | 3.5 | 0.00 | 0.00 | 0.00 | 56 | 1015.3 |
| 20260502205437 | 45 | 316 | 0.9 | 5.2 | 0.00 | 0.00 | 0.00 | 58 | 1015.2 |
| 20260502204931 | 45 | 196 | 0.9 | 5.2 | 0.00 | 0.00 | 0.00 | 60 | 1015.3 |
| 20260502204425 | 45 | 272 | 1.7 | 5.2 | 0.00 | 0.00 | 0.00 | 59 | 1015.2 |
| 20260502203919 | 45 | 321 | 0.9 | 5.2 | 0.00 | 0.00 | 0.00 | 59 | 1015.2 |
| 20260502203412 | 44 | 270 | 0.9 | 6.1 | 0.00 | 0.00 | 0.00 | 59 | 1015.2 |
| 20260502202907 | 43 | 310 | 0.9 | 6.1 | 0.00 | 0.00 | 0.00 | 61 | 1015.3 |
| 20260502202402 | 43 | 259 | 0.9 | 2.6 | 0.00 | 0.00 | 0.00 | 63 | 1015.4 |
| 20260502202115 | 43 | 284 | 0.9 | 2.6 | 0.00 | 0.00 | 0.00 | 62 | 1015.3 |
| 20260502201349 | 43 | 246 | 0.9 | 4.3 | 0.00 | 0.00 | 0.00 | 63 | 1015.3 |
| 20260502200843 | 43 | 258 | 0.9 | 4.3 | 0.00 | 0.00 | 0.00 | 63 | 1015.4 |
| 20260502200337 | 43 | 107 | 0.9 | 5.2 | 0.00 | 0.00 | 0.00 | 64 | 1015.4 |
| 20260502195830 | 43 | 262 | 0.9 | 5.2 | 0.00 | 0.00 | 0.00 | 63 | 1015.5 |
| 20260502195324 | 44 | 219 | 0.9 | 3.5 | 0.00 | 0.00 | 0.00 | 63 | 1015.5 |
| 20260502194818 | 44 | 283 | 0.9 | 3.5 | 0.00 | 0.00 | 0.00 | 64 | 1015.5 |
| 20260502194312 | 45 | 337 | 0.9 | 3.5 | 0.00 | 0.00 | 0.00 | 63 | 1015.5 |
| 20260502193806 | 45 | 197 | 1.7 | 4.3 | 0.00 | 0.00 | 0.00 | 59 | 1015.4 |
| 20260502193300 | 45 | 198 | 1.7 | 4.3 | 0.00 | 0.00 | 0.00 | 61 | 1015.4 |
| 20260502192755 | 45 | 209 | 0.9 | 3.5 | 0.00 | 0.00 | 0.00 | 60 | 1015.4 |
| 20260502192734 | 44 | 220 | 0.9 | 2.6 | 0.00 | 0.00 | 0.00 | 60 | 1015.5 |
| 20260502191742 | 44 | 243 | 0.9 | 3.5 | 0.00 | 0.00 | 0.00 | 60 | 1015.5 |
| 20260502191237 | 44 | 208 | 0.9 | 3.5 | 0.00 | 0.00 | 0.00 | 62 | 1015.5 |
| 20260502190731 | 44 | 167 | 0.9 | 3.5 | 0.00 | 0.00 | 0.00 | 62 | 1015.6 |
| 20260502190225 | 44 | 175 | 0.9 | 3.5 | 0.00 | 0.00 | 0.00 | 63 | 1015.6 |
| 20260502185719 | 44 | 178 | 0.9 | 3.5 | 0.00 | 0.00 | 0.00 | 62 | 1015.6 |
| 20260502185214 | 44 | 253 | 0.9 | 3.5 | 0.00 | 0.00 | 0.00 | 59 | 1015.6 |
| 20260502184707 | 45 | 265 | 0.9 | 3.5 | 0.00 | 0.00 | 0.00 | 59 | 1015.8 |
| 20260502184421 | 46 | 204 | 0.9 | 4.3 | 0.00 | 0.01 | 0.00 | 58 | 1015.6 |
| 20260502183917 | 46 | 304 | 0.9 | 4.3 | 0.00 | 0.01 | 0.00 | 57 | 1015.6 |
| 20260502183149 | 47 | 285 | 1.7 | 5.2 | 0.00 | 0.01 | 0.00 | 58 | 1015.8 |
| 20260502182910 | 47 | 0 | 0.9 | 5.2 | 0.00 | 0.01 | 0.00 | 58 | 1015.6 |
| 20260502182359 | 47 | 250 | 1.7 | 5.2 | 0.00 | 0.01 | 0.00 | 60 | 1015.6 |
| 20260502181631 | 46 | 269 | 1.7 | 5.2 | 0.00 | 0.01 | 0.00 | 64 | 1015.6 |
| 20260502181125 | 45 | 140 | 1.7 | 6.1 | 0.00 | 0.01 | 0.00 | 63 | 1015.9 |
| 20260502180619 | 44 | 213 | 0.9 | 6.1 | 0.00 | 0.01 | 0.00 | 63 | 1015.9 |
| 20260502180113 | 43 | 123 | 0.9 | 2.6 | 0.00 | 0.01 | 0.00 | 69 | 1016.0 |
| 20260502170507 | 43 | 180 | 3.5 | 6.1 | 0.00 | 0.01 | 0.00 | 67 | 1015.8 |
| 20260502163938 | 44 | 171 | 1.7 | 2.6 | 0.00 | 0.03 | 0.00 | 62 | 1015.6 |
| 20260502163438 | 43 | 234 | 1.7 | 3.5 | 0.00 | 0.03 | 0.00 | 62 | 1015.9 |
| 20260502162937 | 43 | 205 | 0.9 | 3.5 | 0.00 | 0.03 | 0.00 | 63 | 1015.9 |
| 20260502162659 | 43 | 291 | 0.9 | 3.5 | 0.00 | 0.03 | 0.00 | 65 | 1016.0 |
| 20260502161937 | 43 | 227 | 0.9 | 3.5 | 0.00 | 0.03 | 0.00 | 65 | 1016.0 |
| 20260502161437 | 43 | 207 | 1.7 | 3.5 | 0.00 | 0.03 | 0.00 | 67 | 1016.1 |
| 20260502160935 | 42 | 179 | 0.9 | 3.5 | 0.00 | 0.04 | 0.00 | 67 | 1016.0 |
| 20260502160435 | 42 | 184 | 0.9 | 4.3 | 0.00 | 0.04 | 0.00 | 67 | 1016.0 |
| 20260502151931 | 42 | 306 | 0.9 | 3.5 | 0.00 | 0.05 | 0.00 | 68 | 1015.9 |
| 20260502151427 | 41 | 284 | 0.9 | 3.5 | 0.00 | 0.05 | 0.00 | 70 | 1015.9 |
| 20260502150927 | 41 | 213 | 0.9 | 2.6 | 0.00 | 0.05 | 0.00 | 69 | 1015.8 |
| 20260502150427 | 42 | 281 | 0.9 | 3.5 | 0.00 | 0.05 | 0.00 | 70 | 1015.8 |
| 20260502130330 | 39 | 210 | 1.7 | 3.5 | 0.00 | 0.09 | 0.00 | 82 | 1015.3 |
| 20260502123800 | 36 | 194 | 0.9 | 3.5 | 0.00 | 0.09 | 0.00 | 82 | 1015.1 |
| 20260502123451 | 35 | 220 | 0.9 | 2.6 | 0.00 | 0.09 | 0.00 | 82 | 1015.1 |
| 20260502123341 | 35 | 202 | 0.9 | 2.6 | 0.00 | 0.09 | 0.00 | 81 | 1015.1 |
| 20260502122252 | 35 | 173 | 1.7 | 3.5 | 0.00 | 0.09 | 0.00 | 81 | 1015.1 |
| 20260502121751 | 34 | 189 | 1.7 | 3.5 | 0.00 | 0.09 | 0.00 | 82 | 1015.1 |
| 20260502121510 | 34 | 178 | 0.9 | 3.5 | 0.00 | 0.09 | 0.00 | 82 | 1015.1 |
| 20260502120754 | 34 | 184 | 0.9 | 2.6 | 0.00 | 0.09 | 0.00 | 83 | 1015.0 |
| 20260502120248 | 34 | 185 | 0.9 | 2.6 | 0.00 | 0.09 | 0.00 | 84 | 1015.0 |
| 20260502115748 | 34 | 188 | 0.9 | 1.7 | 0.00 | 0.09 | 0.00 | 85 | 1015.0 |
| 20260502115246 | 33 | 188 | 0.9 | 1.7 | 0.00 | 0.09 | 0.00 | 85 | 1015.0 |
| 20260502114747 | 33 | 196 | 0.9 | 1.7 | 0.00 | 0.09 | 0.00 | 86 | 1015.0 |
| 20260502114510 | 33 | 200 | 0.9 | 1.7 | 0.00 | 0.09 | 0.00 | 87 | 1015.1 |
| 20260502113747 | 32 | 198 | 0.9 | 1.7 | 0.00 | 0.09 | 0.00 | 86 | 1015.1 |
| 20260502113247 | 32 | 196 | 0.9 | 2.6 | 0.00 | 0.09 | 0.00 | 87 | 1015.0 |
| 20260502112746 | 32 | 194 | 0.9 | 2.6 | 0.00 | 0.09 | 0.00 | 87 | 1015.0 |
| 20260502112246 | 32 | 196 | 0.9 | 1.7 | 0.00 | 0.09 | 0.00 | 87 | 1015.0 |
| 20260502111747 | 32 | 196 | 0.9 | 1.7 | 0.00 | 0.09 | 0.00 | 88 | 1015.0 |
| 20260502111502 | 32 | 195 | 0.9 | 1.7 | 0.00 | 0.09 | 0.00 | 88 | 1014.9 |
| 20260502110744 | 32 | 195 | 0.9 | 1.7 | 0.00 | 0.09 | 0.00 | 88 | 1015.0 |
| 20260502110242 | 32 | 195 | 0.9 | 1.7 | 0.00 | 0.09 | 0.00 | 88 | 1015.0 |
| 20260502105736 | 32 | 195 | 0.9 | 0.9 | 0.00 | 0.09 | 0.00 | 88 | 1014.9 |
| 20260502105230 | 32 | 195 | 0.9 | 1.7 | 0.00 | 0.09 | 0.00 | 87 | 1014.9 |
| 20260502104724 | 32 | 195 | 0.0 | 1.7 | 0.00 | 0.09 | 0.00 | 87 | 1014.8 |
| 20260502104709 | 32 | 195 | 0.0 | 1.7 | 0.00 | 0.09 | 0.00 | 87 | 1014.8 |
| 20260502103718 | 32 | 195 | 0.0 | 1.7 | 0.00 | 0.09 | 0.00 | 87 | 1014.8 |
| 20260502103216 | 32 | 195 | 0.0 | 0.0 | 0.00 | 0.09 | 0.00 | 86 | 1014.8 |
| 20260502102715 | 32 | 195 | 0.0 | 0.0 | 0.00 | 0.09 | 0.00 | 86 | 1014.8 |
| 20260502102212 | 32 | 195 | 0.0 | 1.7 | 0.00 | 0.09 | 0.00 | 86 | 1014.8 |
| 20260502101933 | 32 | 195 | 0.0 | 1.7 | 0.00 | 0.09 | 0.00 | 86 | 1014.8 |
| 20260502101209 | 32 | 195 | 0.0 | 1.7 | 0.00 | 0.09 | 0.00 | 86 | 1014.7 |
| 20260502100706 | 32 | 195 | 0.0 | 1.7 | 0.00 | 0.09 | 0.00 | 85 | 1014.7 |
| 20260502100206 | 32 | 195 | 0.0 | 1.7 | 0.00 | 0.09 | 0.00 | 85 | 1014.7 |
| 20260502091152 | 34 | 195 | 0.9 | 1.7 | 0.00 | 0.09 | 0.00 | 83 | 1014.6 |
| 20260502090652 | 34 | 195 | 0.9 | 1.7 | 0.00 | 0.09 | 0.00 | 83 | 1014.6 |
| 20260502090152 | 34 | 192 | 0.9 | 1.7 | 0.00 | 0.09 | 0.00 | 83 | 1014.6 |
| 20260502071122 | 36 | 188 | 1.7 | 2.6 | 0.00 | 0.09 | 0.00 | 89 | 1014.7 |
| 20260502070622 | 36 | 184 | 1.7 | 2.6 | 0.00 | 0.09 | 0.00 | 89 | 1014.7 |
| 20260502070122 | 36 | 186 | 1.7 | 2.6 | 0.00 | 0.09 | 0.00 | 90 | 1014.6 |
| 20260502065845 | 36 | 179 | 0.9 | 2.6 | 0.00 | 0.09 | 0.00 | 90 | 1014.7 |
| 20260502065349 | 36 | 188 | 0.9 | 2.6 | 0.00 | 0.09 | 0.00 | 91 | 1014.8 |
| 20260502064622 | 37 | 185 | 0.9 | 1.7 | 0.00 | 0.09 | 0.00 | 91 | 1014.8 |
| 20260502064121 | 37 | 182 | 0.9 | 1.7 | 0.00 | 0.09 | 0.00 | 91 | 1014.8 |
| 20260502063622 | 37 | 181 | 0.9 | 1.7 | 0.00 | 0.09 | 0.00 | 91 | 1014.8 |
| 20260502063122 | 37 | 184 | 0.9 | 2.6 | 0.00 | 0.09 | 0.00 | 91 | 1014.9 |
| 20260502062622 | 37 | 184 | 0.9 | 2.6 | 0.00 | 0.09 | 0.00 | 91 | 1014.9 |
| 20260502062122 | 37 | 174 | 1.7 | 2.6 | 0.00 | 0.09 | 0.00 | 92 | 1014.9 |
| 20260502061621 | 37 | 178 | 1.7 | 2.6 | 0.00 | 0.09 | 0.00 | 92 | 1014.9 |
| 20260502061122 | 37 | 180 | 0.9 | 2.6 | 0.00 | 0.09 | 0.00 | 92 | 1014.9 |
| 20260502060622 | 37 | 180 | 0.9 | 1.7 | 0.00 | 0.09 | 0.00 | 92 | 1014.9 |
| 20260502060613 | 37 | 191 | 0.9 | 0.9 | 0.00 | 0.09 | 0.00 | 92 | 1014.9 |
| 20260502055622 | 36 | 195 | 0.9 | 0.9 | 0.00 | 0.09 | 0.00 | 92 | 1014.9 |
| 20260502055122 | 36 | 196 | 0.0 | 0.9 | 0.00 | 0.09 | 0.00 | 92 | 1015.0 |
| 20260502054845 | 37 | 196 | 0.0 | 0.9 | 0.00 | 0.09 | 0.00 | 92 | 1015.1 |
| 20260502054109 | 37 | 196 | 0.0 | 1.7 | 0.00 | 0.09 | 0.00 | 92 | 1015.1 |
| 20260502053603 | 37 | 196 | 0.0 | 1.7 | 0.00 | 0.09 | 0.00 | 92 | 1015.1 |
| 20260502053057 | 37 | 196 | 0.0 | 0.0 | 0.00 | 0.09 | 0.00 | 92 | 1015.1 |
| 20260502052551 | 37 | 196 | 0.0 | 0.0 | 0.00 | 0.09 | 0.00 | 92 | 1015.0 |
| 20260502052044 | 37 | 196 | 0.0 | 1.7 | 0.00 | 0.09 | 0.00 | 92 | 1015.0 |
| 20260502051540 | 37 | 196 | 0.0 | 1.7 | 0.00 | 0.09 | 0.00 | 92 | 1015.1 |
| 20260502051033 | 37 | 196 | 0.0 | 1.7 | 0.00 | 0.09 | 0.00 | 92 | 1015.1 |
| 20260502050750 | 37 | 196 | 0.0 | 1.7 | 0.00 | 0.09 | 0.00 | 92 | 1015.1 |
| 20260502050020 | 37 | 196 | 0.0 | 0.9 | 0.00 | 0.09 | 0.00 | 92 | 1015.1 |
| 20260502045513 | 37 | 196 | 0.0 | 1.7 | 0.00 | 0.09 | 0.00 | 92 | 1015.2 |
| 20260502045007 | 38 | 196 | 0.0 | 1.7 | 0.00 | 0.09 | 0.00 | 91 | 1015.1 |
| 20260502044501 | 38 | 196 | 0.0 | 1.7 | 0.00 | 0.09 | 0.00 | 91 | 1015.1 |
| 20260502043955 | 38 | 196 | 0.0 | 1.7 | 0.00 | 0.09 | 0.00 | 91 | 1015.1 |
| 20260502043449 | 38 | 196 | 0.0 | 1.7 | 0.00 | 0.09 | 0.00 | 91 | 1015.1 |
| 20260502042943 | 38 | 196 | 0.0 | 1.7 | 0.00 | 0.09 | 0.00 | 91 | 1015.1 |
| 20260502042703 | 38 | 196 | 0.0 | 1.7 | 0.00 | 0.09 | 0.00 | 92 | 1015.2 |
| 20260502041931 | 38 | 196 | 0.0 | 0.9 | 0.00 | 0.09 | 0.00 | 91 | 1015.2 |
| 20260502041425 | 37 | 196 | 0.0 | 0.0 | 0.00 | 0.09 | 0.00 | 91 | 1015.1 |
| 20260502041403 | 37 | 196 | 0.0 | 0.0 | 0.00 | 0.09 | 0.00 | 90 | 1015.2 |
| 20260502040413 | 37 | 196 | 0.0 | 0.0 | 0.00 | 0.09 | 0.00 | 90 | 1015.1 |
| 20260502040136 | 37 | 196 | 0.0 | 0.0 | 0.00 | 0.09 | 0.09 | 89 | 1015.1 |
| 20260502035621 | 38 | 196 | 0.0 | 0.0 | 0.00 | 0.09 | 0.09 | 89 | 1015.1 |
| 20260502034856 | 38 | 196 | 0.0 | 0.0 | 0.00 | 0.09 | 0.09 | 89 | 1015.0 |
| 20260502034350 | 38 | 196 | 0.0 | 0.0 | 0.00 | 0.09 | 0.09 | 89 | 1015.0 |
| 20260502033844 | 38 | 196 | 0.0 | 0.0 | 0.00 | 0.09 | 0.09 | 88 | 1015.1 |
| 20260502033338 | 38 | 196 | 0.0 | 0.0 | 0.00 | 0.09 | 0.09 | 88 | 1015.0 |
| 20260502032832 | 39 | 196 | 0.0 | 0.0 | 0.00 | 0.09 | 0.09 | 88 | 1015.2 |
| 20260502032326 | 39 | 196 | 0.0 | 0.0 | 0.00 | 0.09 | 0.09 | 88 | 1015.3 |
| 20260502031820 | 39 | 196 | 0.0 | 1.7 | 0.00 | 0.09 | 0.09 | 88 | 1015.2 |
| 20260502031314 | 39 | 196 | 0.0 | 1.7 | 0.00 | 0.09 | 0.09 | 87 | 1015.1 |
| 20260502030808 | 40 | 196 | 0.0 | 0.9 | 0.00 | 0.09 | 0.09 | 87 | 1015.1 |
| 20260502030522 | 40 | 196 | 0.0 | 1.7 | 0.00 | 0.09 | 0.09 | 87 | 1015.1 |
| 20260502030018 | 40 | 196 | 0.0 | 1.7 | 0.00 | 0.09 | 0.09 | 88 | 1015.2 |
| 20260502025515 | 40 | 196 | 0.0 | 1.7 | 0.00 | 0.09 | 0.09 | 87 | 1015.2 |
| 20260502024744 | 40 | 196 | 0.0 | 1.7 | 0.00 | 0.09 | 0.09 | 87 | 1015.1 |
| 20260502024238 | 40 | 196 | 0.0 | 0.0 | 0.00 | 0.09 | 0.09 | 87 | 1015.1 |
| 20260502024002 | 40 | 196 | 0.0 | 0.0 | 0.00 | 0.09 | 0.09 | 86 | 1015.1 |
| 20260502023226 | 40 | 196 | 0.0 | 0.0 | 0.00 | 0.09 | 0.09 | 86 | 1015.1 |
| 20260502022937 | 41 | 196 | 0.0 | 0.0 | 0.00 | 0.09 | 0.09 | 86 | 1015.0 |
| 20260502022214 | 41 | 196 | 0.0 | 0.0 | 0.00 | 0.09 | 0.09 | 89 | 1015.0 |
| 20260502021708 | 41 | 196 | 0.0 | 0.0 | 0.00 | 0.09 | 0.09 | 87 | 1014.9 |
| 20260502021202 | 41 | 196 | 0.0 | 0.0 | 0.00 | 0.09 | 0.09 | 86 | 1014.9 |
| 20260502020656 | 41 | 196 | 0.0 | 0.0 | 0.00 | 0.09 | 0.09 | 86 | 1014.8 |
| 20260502020150 | 41 | 196 | 0.0 | 1.7 | 0.00 | 0.09 | 0.09 | 85 | 1014.8 |
| 20260502015644 | 41 | 196 | 0.0 | 1.7 | 0.00 | 0.09 | 0.09 | 85 | 1014.9 |
| 20260502015139 | 41 | 196 | 0.0 | 1.7 | 0.00 | 0.09 | 0.09 | 85 | 1014.8 |
| 20260502014632 | 41 | 196 | 0.0 | 1.7 | 0.00 | 0.09 | 0.09 | 85 | 1014.8 |
| 20260502014435 | 41 | 196 | 0.0 | 1.7 | 0.00 | 0.09 | 0.09 | 85 | 1014.7 |
| 20260502014327 | 41 | 196 | 0.0 | 1.7 | 0.00 | 0.09 | 0.09 | 85 | 1014.7 |
| 20260502013115 | 41 | 196 | 0.0 | 0.9 | 0.00 | 0.09 | 0.09 | 84 | 1014.6 |
| 20260502012608 | 41 | 196 | 0.0 | 0.0 | 0.00 | 0.09 | 0.09 | 83 | 1014.4 |
| 20260502012102 | 41 | 196 | 0.0 | 0.0 | 0.00 | 0.09 | 0.09 | 83 | 1014.3 |
| 20260502011556 | 41 | 196 | 0.0 | 0.0 | 0.00 | 0.09 | 0.09 | 81 | 1014.3 |
| 20260502011050 | 41 | 196 | 0.0 | 0.0 | 0.00 | 0.09 | 0.09 | 81 | 1014.2 |
| 20260502010745 | 41 | 196 | 0.0 | 0.9 | 0.00 | 0.09 | 0.09 | 80 | 1014.1 |
| 20260502010634 | 41 | 196 | 0.0 | 0.9 | 0.00 | 0.09 | 0.09 | 81 | 1014.1 |
| 20260502005748 | 41 | 196 | 0.0 | 1.7 | 0.00 | 0.09 | 0.09 | 80 | 1014.1 |
| 20260502005247 | 42 | 196 | 0.0 | 1.7 | 0.00 | 0.09 | 0.09 | 79 | 1014.1 |
| 20260502004749 | 42 | 196 | 0.0 | 1.7 | 0.00 | 0.09 | 0.09 | 78 | 1014.2 |
| 20260502004014 | 42 | 196 | 0.0 | 1.7 | 0.00 | 0.09 | 0.09 | 78 | 1014.2 |
| 20260502003728 | 42 | 181 | 0.9 | 2.6 | 0.00 | 0.09 | 0.09 | 78 | 1014.2 |
| 20260502003002 | 42 | 251 | 0.9 | 2.6 | 0.00 | 0.09 | 0.09 | 77 | 1014.3 |
| 20260502002456 | 43 | 212 | 0.9 | 1.7 | 0.00 | 0.09 | 0.09 | 78 | 1014.4 |
| 20260502001950 | 43 | 200 | 0.0 | 1.7 | 0.00 | 0.09 | 0.09 | 77 | 1014.4 |
| 20260502001446 | 43 | 199 | 0.0 | 2.6 | 0.00 | 0.09 | 0.09 | 77 | 1014.2 |
| 20260502000938 | 43 | 196 | 0.0 | 2.6 | 0.00 | 0.09 | 0.09 | 78 | 1014.0 |
| 20260502000432 | 43 | 221 | 0.0 | 1.7 | 0.00 | 0.09 | 0.09 | 78 | 1013.9 |
| 20260502000152 | 43 | 217 | 0.0 | 1.7 | 0.00 | 0.09 | 0.09 | 79 | 1013.7 |
| 20260501235420 | 43 | 234 | 0.0 | 1.7 | 0.00 | 0.09 | 0.09 | 78 | 1013.7 |
| 20260501234914 | 43 | 232 | 0.0 | 1.7 | 0.00 | 0.09 | 0.09 | 79 | 1013.6 |
| 20260501234408 | 43 | 257 | 0.0 | 1.7 | 0.00 | 0.09 | 0.09 | 79 | 1013.5 |
| 20260501233901 | 43 | 257 | 0.0 | 1.7 | 0.00 | 0.09 | 0.09 | 80 | 1013.4 |
| 20260501233356 | 43 | 257 | 0.0 | 1.7 | 0.00 | 0.09 | 0.09 | 79 | 1013.4 |
| 20260501232850 | 43 | 257 | 0.0 | 1.7 | 0.00 | 0.09 | 0.09 | 79 | 1013.3 |
| 20260501232344 | 44 | 244 | 0.0 | 1.7 | 0.00 | 0.09 | 0.09 | 78 | 1013.2 |
| 20260501232106 | 44 | 286 | 0.0 | 1.7 | 0.00 | 0.09 | 0.09 | 78 | 1013.2 |
| 20260501231342 | 44 | 300 | 0.0 | 1.7 | 0.00 | 0.09 | 0.09 | 78 | 1013.2 |
| 20260501230840 | 44 | 305 | 0.0 | 1.7 | 0.00 | 0.09 | 0.09 | 77 | 1013.0 |
| 20260501230338 | 44 | 321 | 0.0 | 1.7 | 0.00 | 0.09 | 0.09 | 78 | 1013.0 |
| 20260501225338 | 44 | 262 | 0.0 | 1.7 | 0.00 | 0.09 | 0.09 | 77 | 1013.0 |
| 20260501224838 | 44 | 200 | 0.0 | 1.7 | 0.00 | 0.09 | 0.09 | 78 | 1013.0 |
| 20260501224338 | 44 | 220 | 0.0 | 1.7 | 0.00 | 0.09 | 0.09 | 78 | 1013.2 |
| 20260501223838 | 44 | 205 | 0.9 | 1.7 | 0.00 | 0.09 | 0.09 | 79 | 1013.1 |
| 20260501223338 | 44 | 229 | 0.9 | 2.6 | 0.00 | 0.09 | 0.09 | 78 | 1013.2 |
| 20260501222838 | 44 | 267 | 0.9 | 2.6 | 0.00 | 0.09 | 0.09 | 77 | 1013.3 |
| 20260501222338 | 44 | 244 | 0.9 | 1.7 | 0.00 | 0.09 | 0.09 | 78 | 1013.3 |
| 20260501221838 | 44 | 257 | 0.9 | 2.6 | 0.00 | 0.09 | 0.09 | 78 | 1013.2 |
| 20260501221338 | 44 | 190 | 0.9 | 2.6 | 0.00 | 0.09 | 0.09 | 78 | 1013.3 |